Location: Most
(50.5133°N, 13.6207°E)
Time: 09:40:39
(UTC+02:00)

ISS - Pass Details

Date: 13 July 2018
Orbit: 402 x 408 km, 51.6° (Epoch: 17 July)

Event Time Altitude Azimuth Distance (km) Brightness Sun altitude
Exits shadow 01:58:11 38° 141° (SE) 642 -3.2 -16.9°
Drops below altitude 10° 02:01:05 10° 82° (E) 1,471 -0.7 -16.8°
Sets 02:03:15 0° 74° (ENE) 2,335 0.4 -16.7°
